Location: NCO
(38.4404°N, 77.1340°W)
Time: 10:35:47
(UTC-04:00)

Amateur Radio Satellites - All Passes

Search period start: 28 May 2017 10:05
Search period end: 29 May 2017 10:05
Location: NCO, 38.4404°N, 77.1340°W

Satellite Date Start Highest point End Downlink Frequencies (MHz)
Time Altitude Azimuth
SEEDS 28 May 10:16:03 10:17:38 12° 296° (WNW) 10:19:12 437.485
RS-15 28 May 10:19:28 10:31:01 44° 44° (NE) 10:42:01 29.354- 29.394
CUBEBUG 2 28 May 10:26:14 10:28:46 15° 295° (WNW) 10:31:20 437.445
HO-68 28 May 10:28:49 10:33:51 21° 302° (WNW) 10:38:51 435.675
UWE-3 28 May 10:32:01 10:35:20 20° 293° (WNW) 10:38:41 435.000/436.395/437.385
EO-88 28 May 10:45:44 10:49:19 49° 99° (E) 10:52:53 145.990 - 145.960
Oscar 11 28 May 10:56:53 11:00:20 23° 291° (WNW) 11:03:46 .
POLYITAN 1 28 May 10:59:53 11:01:48 13° 65° (ENE) 11:03:43 437.675
DUCHIFAT 1 28 May 11:03:52 11:05:10 11° 64° (ENE) 11:06:29 145.980
TIGRISAT 28 May 11:05:51 11:09:42 33° 263° (W) 11:13:40 435.000
QB50P2 28 May 11:07:42 11:10:29 17° 67° (ENE) 11:13:15 145.880/145.840
DELFI C3 28 May 11:09:56 11:13:46 53° 285° (WNW) 11:17:34 145.870
PRISM 28 May 11:11:57 11:14:54 19° 265° (W) 11:17:52 437.425
LO-87 28 May 11:23:37 11:25:59 17° 94° (E) 11:28:19 145.935 - 145.965
AO-73 28 May 11:28:28 11:28:59 10° 297° (WNW) 11:29:30 145.935
ESTCUBE 1 28 May 11:30:05 11:32:13 13° 91° (E) 11:34:21 437.505/2401.250
FO-29 28 May 11:32:03 11:36:07 23° 266° (W) 11:40:16 435.910
UNISAT 6 28 May 11:40:11 11:42:20 14° 269° (W) 11:44:30 437.425
EO-79 28 May 11:42:51 11:46:44 39° 72° (ENE) 11:50:39 145.935-145.965
AIST 2D 28 May 11:45:47 11:49:17 87° 252° (WSW) 11:52:51 435.315
YUBILEINY 28 May 12:05:16 12:13:40 45° 76° (ENE) 12:22:01 435.215
AO-85 28 May 12:05:46 12:06:21 10° 43° (NE) 12:06:56 145.980
VELOX 1 28 May 12:19:16 12:19:29 10° 90° (E) 12:19:42 145.980
EO-88 28 May 12:22:22 12:22:31 10° 295° (WNW) 12:22:41 145.990 - 145.960
NANOSAT C BR1 28 May 12:26:32 12:30:40 68° 258° (WSW) 12:34:52 145.865
RS-15 28 May 12:32:12 12:43:57 60° 248° (WSW) 12:55:07 29.354- 29.394
POLYITAN 1 28 May 12:33:03 12:37:07 51° 260° (W) 12:41:14 437.675
DUCHIFAT 1 28 May 12:36:13 12:40:19 58° 260° (W) 12:44:27 145.980
QB50P2 28 May 12:42:06 12:45:58 36° 262° (W) 12:49:52 145.880/145.840
O/OREOS (USA 219) 28 May 12:45:22 12:47:35 13° 55° (NE) 12:49:46 437.305
BUGSAT 1 28 May 12:46:41 12:50:32 50° 73° (ENE) 12:54:26 437.445
LO-87 28 May 12:56:25 12:59:23 25° 289° (WNW) 13:02:20 145.935 - 145.965
ESTCUBE 1 28 May 13:04:56 13:09:19 52° 286° (WNW) 13:13:39 437.505/2401.250
EO-79 28 May 13:20:09 13:22:38 15° 267° (W) 13:25:09 145.935-145.965
SPROUT 28 May 13:31:04 13:35:21 78° 101° (E) 13:39:38 437.525
Gurwin Techsat 1B 28 May 13:32:54 13:37:42 36° 69° (ENE) 13:42:30 435.225
BEESAT 3 28 May 13:38:35 13:42:01 26° 51° (NE) 13:45:24 437.485
Oscar 19 28 May 13:38:50 13:44:00 68° 74° (ENE) 13:49:11 437.125/150
AO-85 28 May 13:43:11 13:47:15 89° 262° (W) 13:51:35 145.980
VELOX 1 28 May 13:51:58 13:56:19 64° 285° (WNW) 14:00:39 145.980
50 SAT 28 May 13:54:55 13:58:19 79° 101° (ESE) 14:01:42 437.505
YUBILEINY 28 May 14:02:23 14:10:13 37° 274° (W) 14:18:04 435.215
UKube-1 28 May 14:09:11 14:13:17 43° 99° (E) 14:17:22 .
AO-7 28 May 14:11:22 14:17:34 24° 55° (NE) 14:23:45 .
DX 1 28 May 14:20:53 14:25:14 90° 84° (E) 14:29:34 434.975-435.025
O/OREOS (USA 219) 28 May 14:22:57 14:27:25 61° 252° (WSW) 14:31:49 437.305
BUGSAT 1 28 May 14:25:12 14:26:11 11° 269° (W) 14:27:10 437.445
NO-84 28 May 14:31:45 14:34:28 18° 27° (NNE) 14:37:03 435.350 FM
ITAMSAT 1 28 May 14:46:06 14:50:11 24° 66° (ENE) 14:54:18 435.822/435.867
BEESAT 2 28 May 15:00:06 15:04:10 71° 58° (ENE) 15:08:10 435.950
Gurwin Techsat 1B 28 May 15:13:14 15:17:39 27° 265° (W) 15:22:06 435.225
BEESAT 3 28 May 15:16:11 15:19:30 25° 248° (WSW) 15:22:46 437.485
Oscar 19 28 May 15:21:23 15:23:45 13° 269° (W) 15:26:09 437.125/150
MOZHAYETS 4 28 May 15:30:32 15:33:20 16° 92° (E) 15:36:07
ITUPSAT 1 28 May 15:33:35 15:37:50 30° 97° (E) 15:42:01 437.325
UKube-1 28 May 15:46:20 15:48:56 16° 295° (WNW) 15:51:32 .
AO-7 28 May 16:01:11 16:09:28 77° 254° (WSW) 16:17:49 .
BEESAT 28 May 16:05:18 16:10:05 67° 102° (ESE) 16:14:51 436.000
NO-84 28 May 16:08:45 16:12:27 66° 228° (SW) 16:15:48 435.350 FM
ITAMSAT 1 28 May 16:24:37 16:29:24 38° 262° (W) 16:34:14 435.822/435.867
MOZHAYETS 4 28 May 17:06:15 17:10:43 47° 287° (WNW) 17:15:08
ITUPSAT 1 28 May 17:11:30 17:15:31 27° 292° (WNW) 17:19:32 437.325
XW-2C 28 May 17:21:10 17:22:06 11° 65° (ENE) 17:23:02 145.795 - 145.815
DOVE 4 28 May 17:41:27 17:45:46 42° 73° (ENE) 17:49:52 437.250
KKS-1 28 May 17:43:28 17:47:52 60° 101° (E) 17:52:14 437.445
BEESAT 28 May 17:45:05 17:47:16 13° 298° (WNW) 17:49:26 436.000
CUBESAT XI-V 28 May 17:57:53 18:02:32 76° 285° (WNW) 18:07:07 437.345
LilacSat-2 28 May 17:58:59 18:02:27 33° 72° (ENE) 18:05:56 437.200
AO-7 28 May 18:00:09 18:03:24 13° 271° (W) 18:06:41 .
STARS 28 May 18:08:14 18:12:28 46° 100° (E) 18:16:42 437.465
XW-2D 28 May 18:30:11 18:33:59 84° 77° (ENE) 18:37:50 145.860 - 145.880
CUTE-I 28 May 18:34:55 18:40:13 78° 75° (ENE) 18:45:32 437.470
XW-2B 28 May 18:38:11 18:42:00 80° 258° (WSW) 18:45:51 145.730 - 145.750
NUDT-PHONESAT 28 May 18:41:15 18:44:57 85° 79° (ENE) 18:48:43 437.300
CUTE 1.7 + AOD 2 28 May 18:44:47 18:47:27 16° 67° (ENE) 18:50:08 437.475
XW-2F 28 May 18:49:14 18:52:59 58° 260° (W) 18:56:46 145.980 - 146.000
XW-2C 28 May 18:52:07 18:55:48 50° 260° (W) 18:59:33 145.795 - 145.815
KAITUO 1B 28 May 18:52:58 18:56:41 65° 259° (WSW) 19:00:29 145.475/437.950
PCSat 28 May 18:54:07 18:59:23 56° 113° (ESE) 19:04:42 145.827
HO-68 28 May 19:06:25 19:13:13 48° 67° (ENE) 19:20:03 435.675
Tancredo 1 28 May 19:17:58 19:20:51 40° 136° (SE) 19:23:46 437.200
DOVE 4 28 May 19:20:46 19:23:35 16° 266° (W) 19:26:19 437.250
KKS-1 28 May 19:22:00 19:23:53 13° 297° (WNW) 19:25:46 437.445
SEEDS 28 May 19:28:23 19:32:09 31° 71° (ENE) 19:35:54 437.485
LilacSat-2 28 May 19:34:31 19:36:48 15° 267° (W) 19:39:07 437.200
CUBEBUG 2 28 May 19:44:59 19:48:45 35° 71° (ENE) 19:52:37 437.445
STARS 28 May 19:45:49 19:48:25 16° 295° (WNW) 19:51:00 437.465
UWE-3 28 May 19:50:52 19:54:15 24° 69° (ENE) 19:57:44 435.000/436.395/437.385
XW-2A 28 May 20:09:05 20:12:21 49° 261° (W) 20:15:38 145.665 - 145.685
ISS 28 May 20:11:19 20:14:37 85° 326° (NW) 20:17:55 437.550
Oscar 11 28 May 20:14:25 20:17:28 19° 67° (ENE) 20:20:32 .
STRAND 1 28 May 20:15:00 20:19:59 49° 99° (E) 20:24:58 437.568
CUTE 1.7 + AOD 2 28 May 20:18:53 20:22:55 41° 262° (W) 20:27:00 437.475
CUTE-I 28 May 20:19:10 20:20:48 11° 270° (W) 20:22:27 437.470
AAUSAT CUBESAT 2 28 May 20:20:40 20:24:47 58° 75° (ENE) 20:28:53 437.432
PCSat 28 May 20:39:01 20:43:08 22° 311° (NW) 20:47:16 145.827
AO-73 28 May 20:42:40 20:46:43 47° 73° (ENE) 20:50:54 145.935
Tancredo 1 28 May 20:54:16 20:56:42 21° 332° (NNW) 20:59:10 437.200
HO-68 28 May 20:54:55 21:01:05 31° 264° (W) 21:07:17 435.675
ZACube-1 28 May 20:57:55 21:02:08 81° 75° (ENE) 21:06:28 437.345
SEEDS 28 May 21:04:42 21:07:50 20° 266° (W) 21:10:59 437.485
M-CUBED/EXP-1 PRIME 28 May 21:09:11 21:11:19 16° 100° (E) 21:13:27 437.505
CUBEBUG 2 28 May 21:22:46 21:25:30 17° 267° (W) 21:28:16 437.445
EO-88 28 May 21:22:50 21:25:19 18° 69° (ENE) 21:27:49 145.990 - 145.960
UWE-3 28 May 21:27:09 21:30:37 25° 265° (W) 21:34:10 435.000/436.395/437.385
Oscar 11 28 May 21:49:20 21:53:19 35° 263° (W) 21:57:20 .
ISS 28 May 21:49:27 21:51:32 15° 339° (NNW) 21:53:36 437.550
DELFI C3 28 May 21:53:12 21:57:09 65° 76° (ENE) 22:01:07 145.870
STRAND 1 28 May 21:55:10 21:58:46 20° 296° (WNW) 22:02:23 437.568
UNISAT 6 28 May 21:56:04 21:57:50 12° 91° (E) 21:59:36 437.425
AAUSAT CUBESAT 2 28 May 22:00:01 22:00:34 10° 270° (W) 22:01:07 437.432
SO-50 28 May 22:18:14 22:22:50 86° 120° (ESE) 22:27:24 436.795
AO-73 28 May 22:21:15 22:23:15 13° 269° (W) 22:25:15 145.935
ESTCUBE 1 28 May 22:29:21 22:30:43 11° 62° (ENE) 22:32:05 437.505/2401.250
FO-29 28 May 22:39:02 22:45:26 45° 99° (E) 22:52:28 435.910
M-CUBED/EXP-1 PRIME 28 May 22:43:13 22:45:46 21° 295° (WNW) 22:48:18 437.505
PRISM 28 May 22:53:12 22:57:14 62° 101° (E) 23:01:14 437.425
EO-88 28 May 22:55:42 22:58:47 26° 263° (W) 23:01:56 145.990 - 145.960
TIGRISAT 28 May 22:57:49 23:02:22 53° 100° (E) 23:06:57 435.000
LO-87 28 May 23:30:08 23:33:40 85° 256° (WSW) 23:37:14 145.935 - 145.965
UNISAT 6 28 May 23:30:17 23:34:53 63° 285° (WNW) 23:39:30 437.425
SO-50 29 May 00:01:44 00:03:53 13° 318° (NW) 00:06:02 436.795
ESTCUBE 1 29 May 00:02:22 00:06:53 71° 258° (WSW) 00:11:26 437.505/2401.250
NANOSAT C BR1 29 May 00:12:49 00:16:02 21° 95° (E) 00:19:14 145.865
POLYITAN 1 29 May 00:19:24 00:23:05 27° 96° (E) 00:26:44 437.675
DUCHIFAT 1 29 May 00:21:58 00:25:23 23° 95° (E) 00:28:48 145.980
SPROUT 29 May 00:22:41 00:26:43 46° 73° (ENE) 00:30:48 437.525
FO-29 29 May 00:24:30 00:30:15 33° 292° (WNW) 00:36:36 435.910
50 SAT 29 May 00:26:10 00:28:50 21° 70° (ENE) 00:31:30 437.505
QB50P2 29 May 00:27:59 00:31:58 37° 98° (E) 00:35:57 145.880/145.840
PRISM 29 May 00:31:29 00:31:57 10° 297° (WNW) 00:32:27 437.425
TIGRISAT 29 May 00:35:56 00:38:36 15° 295° (WNW) 00:41:16 435.000
RS-15 29 May 00:42:33 00:51:58 28° 101° (ESE) 01:01:32 29.354- 29.394
AIST 2D 29 May 00:45:20 00:48:50 55° 284° (WNW) 00:52:19 435.315
VELOX 1 29 May 00:47:13 00:51:38 89° 257° (WSW) 00:56:03 145.980
UKube-1 29 May 01:02:12 01:05:57 30° 70° (ENE) 01:09:43 .
EO-79 29 May 01:04:00 01:08:16 88° 288° (WNW) 01:12:33 145.935-145.965
YUBILEINY 29 May 01:04:01 01:12:23 55° 90° (E) 01:20:50 435.215
ISS 29 May 01:05:02 01:06:52 14° 19° (NNE) 01:08:41 437.550
DX 1 29 May 01:14:33 01:18:50 63° 74° (ENE) 01:23:09 434.975-435.025
Tancredo 1 29 May 01:44:10 01:46:56 30° 31° (NNE) 01:49:41 437.200
NANOSAT C BR1 29 May 01:48:01 01:51:44 30° 290° (WNW) 01:55:28 145.865
Gurwin Techsat 1B 29 May 01:51:42 01:54:46 15° 92° (E) 01:57:51 435.225
Oscar 19 29 May 01:52:30 01:56:47 26° 95° (E) 02:01:03 437.125/150
POLYITAN 1 29 May 01:55:18 01:58:43 23° 291° (WNW) 02:02:07 437.675
DUCHIFAT 1 29 May 01:57:25 02:00:59 27° 290° (WNW) 02:04:33 145.980
50 SAT 29 May 01:59:08 02:01:36 18° 265° (W) 02:04:06 437.505
SPROUT 29 May 02:00:49 02:02:52 13° 268° (W) 02:04:54 437.525
BUGSAT 1 29 May 02:04:32 02:08:41 74° 284° (WNW) 02:12:52 437.445
QB50P2 29 May 02:04:36 02:07:27 18° 293° (WNW) 02:10:18 145.880/145.840
MOZHAYETS 4 29 May 02:31:46 02:34:01 14° 64° (ENE) 02:36:17
UKube-1 29 May 02:38:41 02:41:58 21° 265° (W) 02:45:17 .
ITUPSAT 1 29 May 02:38:53 02:43:02 30° 69° (ENE) 02:47:11 437.325
ISS 29 May 02:40:36 02:43:53 67° 38° (NE) 02:47:07 437.550
JUGNU 29 May 02:49:55 02:50:24 10° 171° (S) 02:50:52 437.505
RS-15 29 May 02:51:00 03:03:07 79° 302° (WNW) 03:15:36 29.354- 29.394
DX 1 29 May 02:54:53 02:55:23 10° 269° (W) 02:55:53 434.975-435.025
O/OREOS (USA 219) 29 May 02:55:49 02:58:57 18° 100° (E) 03:02:05 437.305
YUBILEINY 29 May 03:02:03 03:09:31 31° 289° (WNW) 03:17:05 435.215
BEESAT 29 May 03:09:58 03:14:39 65° 75° (ENE) 03:19:24 436.000
Tancredo 1 29 May 03:20:04 03:22:35 23° 227° (SW) 03:25:05 437.200
Gurwin Techsat 1B 29 May 03:29:51 03:35:05 60° 287° (WNW) 03:40:18 435.225
Oscar 19 29 May 03:31:29 03:36:06 34° 291° (WNW) 03:40:41 437.125/150
PCSat 29 May 03:43:34 03:48:30 34° 54° (NE) 03:53:23 145.827
AO-85 29 May 03:56:24 04:00:21 39° 116° (ESE) 04:04:08 145.980
AO-7 29 May 04:04:41 04:12:27 40° 99° (E) 04:20:09 .
MOZHAYETS 4 29 May 04:06:06 04:10:38 59° 260° (W) 04:15:13
ITUPSAT 1 29 May 04:16:50 04:20:48 26° 264° (W) 04:24:49 437.325
ISS 29 May 04:18:57 04:19:57 11° 232° (SW) 04:20:56 437.550
O/OREOS (USA 219) 29 May 04:33:42 04:38:01 39° 296° (WNW) 04:42:21 437.305
JUGNU 29 May 04:36:19 04:38:29 12° 182° (S) 04:40:40 437.505
ITAMSAT 1 29 May 04:38:20 04:43:35 83° 104° (ESE) 04:48:48 435.822/435.867
KKS-1 29 May 04:39:52 04:44:04 45° 72° (ENE) 04:48:17 437.445
BEESAT 2 29 May 04:51:06 04:53:41 17° 110° (ESE) 04:56:18 435.950
BEESAT 29 May 04:51:07 04:52:50 12° 269° (W) 04:54:34 436.000
CUBESAT XI-V 29 May 04:59:07 05:03:50 87° 74° (ENE) 05:08:33 437.345
STARS 29 May 05:03:21 05:07:16 34° 70° (ENE) 05:11:12 437.465
BEESAT 3 29 May 05:03:26 05:07:22 72° 118° (ESE) 05:11:21 437.485
RS-15 29 May 05:07:51 05:17:58 29° 329° (NNW) 05:28:12 29.354- 29.394
PCSat 29 May 05:27:02 05:31:48 32° 251° (WSW) 05:36:33 145.827
AO-85 29 May 05:37:57 05:40:51 18° 311° (NW) 05:43:42 145.980
DOVE 4 29 May 05:43:28 05:44:40 11° 92° (E) 05:45:54 437.250
AO-7 29 May 05:57:25 06:05:10 45° 297° (WNW) 06:12:57 .
XW-2B 29 May 06:14:09 06:15:35 12° 91° (E) 06:17:01 145.730 - 145.750
KKS-1 29 May 06:18:18 06:20:49 15° 267° (W) 06:23:21 437.445
ITAMSAT 1 29 May 06:20:19 06:22:18 12° 300° (WNW) 06:24:17 435.822/435.867
XW-2F 29 May 06:23:55 06:26:14 15° 93° (E) 06:28:32 145.980 - 146.000
XW-2C 29 May 06:26:52 06:29:32 18° 94° (E) 06:32:10 145.795 - 145.815
KAITUO 1B 29 May 06:27:05 06:28:58 13° 92° (E) 06:30:51 145.475/437.950
BEESAT 2 29 May 06:27:24 06:31:07 37° 306° (NW) 06:34:54 435.950
STARS 29 May 06:40:32 06:43:40 19° 266° (W) 06:46:49 437.465
BEESAT 3 29 May 06:43:48 06:45:26 12° 317° (NW) 06:47:03 437.485
SO-50 29 May 06:50:55 06:55:18 49° 55° (NE) 06:59:41 436.795
CUTE-I 29 May 06:53:40 06:58:32 35° 97° (E) 07:03:23 437.470
LilacSat-2 29 May 07:07:17 07:11:08 62° 101° (E) 07:14:57 437.200
SRMSAT 29 May 07:09:22 07:11:39 12° 181° (S) 07:13:57 437.500
DOVE 4 29 May 07:18:33 07:22:39 54° 285° (WNW) 07:26:53 437.250
NO-84 29 May 07:23:33 07:27:30 34° 128° (SE) 07:31:27 435.350 FM
RS-15 29 May 07:28:36 07:36:34 19° 5° (N) 07:44:26 29.354- 29.394
STRAND 1 29 May 07:29:18 07:34:18 60° 73° (ENE) 07:39:19 437.568
XW-2A 29 May 07:34:47 07:35:10 10° 92° (E) 07:35:33 145.665 - 145.685
XW-2D 29 May 07:38:12 07:41:57 51° 285° (WNW) 07:45:39 145.860 - 145.880
XW-2B 29 May 07:46:19 07:49:58 42° 286° (WNW) 07:53:35 145.730 - 145.750
NUDT-PHONESAT 29 May 07:46:50 07:50:32 53° 285° (WNW) 07:54:11 437.300
M-CUBED/EXP-1 PRIME 29 May 07:53:02 07:56:15 22° 66° (ENE) 07:59:19 437.505
XW-2F 29 May 07:57:00 08:00:26 32° 288° (WNW) 08:03:51 145.980 - 146.000
KAITUO 1B 29 May 07:59:37 08:03:07 36° 287° (WNW) 08:06:35 145.475/437.950
XW-2C 29 May 08:00:24 08:03:44 28° 288° (WNW) 08:07:02 145.795 - 145.815
CUTE 1.7 + AOD 2 29 May 08:05:04 08:09:00 36° 97° (E) 08:12:53 437.475
HO-68 29 May 08:22:51 08:29:57 58° 102° (ESE) 08:36:59 435.675
SO-50 29 May 08:32:31 08:35:21 16° 250° (WSW) 08:38:11 436.795
CUTE-I 29 May 08:33:57 08:38:26 28° 293° (WNW) 08:42:54 437.470
AO-73 29 May 08:34:12 08:35:34 11° 90° (E) 08:36:55 145.935
ZACube-1 29 May 08:48:19 08:51:33 19° 93° (E) 08:54:47 437.345
SEEDS 29 May 08:48:31 08:52:44 75° 102° (ESE) 08:56:54 437.485
FO-29 29 May 08:54:31 08:56:26 12° 59° (ENE) 08:58:23 435.910
NO-84 29 May 09:01:03 09:05:06 35° 323° (NW) 09:09:04 435.350 FM
XW-2A 29 May 09:04:51 09:08:04 38° 286° (WNW) 09:11:17 145.665 - 145.685
STRAND 1 29 May 09:11:06 09:13:51 15° 269° (W) 09:16:36 437.568
CUBEBUG 2 29 May 09:12:34 09:17:14 79° 284° (WNW) 09:21:57 437.445
UWE-3 29 May 09:16:43 09:21:21 69° 101° (E) 09:26:00 435.000/436.395/437.385
M-CUBED/EXP-1 PRIME 29 May 09:26:58 09:30:34 27° 257° (WSW) 09:33:58 437.505
Oscar 11 29 May 09:37:34 09:41:45 44° 99° (E) 09:45:53 .
AAUSAT CUBESAT 2 29 May 09:39:26 09:43:30 59° 285° (WNW) 09:47:31 437.432
PRISM 29 May 09:40:51 09:44:36 35° 71° (ENE) 09:48:22 437.425
CUTE 1.7 + AOD 2 29 May 09:41:40 09:44:33 18° 293° (WNW) 09:47:24 437.475
TIGRISAT 29 May 09:55:11 09:59:06 36° 71° (ENE) 10:03:05 435.000
